Location: Caltech
(34.1382°N, 118.1253°W)
Time: 08:43:23
(UTC-07:00)

Tiros 1 despin weight - Visible Passes

Search period start: 26 May 2015 00:00
Search period end: 05 June 2015 00:00
Orbit: 598 x 647 km, 48.2° (Epoch: 26 May)

Date Brightness Start Highest point End Pass type
(mag) Time Alt. Az. Time Alt. Az. Time Alt. Az.
26 May ? 01:14:04 10° NNW 01:16:17 13° N 01:18:31 10° NNE visible
26 May ? 02:55:42 10° NNW 02:59:15 22° NNE 03:02:53 10° ENE visible
26 May ? 04:36:48 10° NW 04:41:24 88° NE 04:46:03 10° SE visible
26 May ? 20:23:51 10° SSW 20:27:42 30° SE 20:31:38 10° ENE visible
26 May ? 22:05:02 10° WSW 22:09:15 42° NNW 22:13:31 10° NE visible
26 May ? 23:49:06 10° NW 23:51:50 16° NNW 23:54:34 10° NNE visible
27 May ? 01:32:24 10° NNW 01:34:55 15° N 01:37:31 10° NE visible
27 May ? 03:13:28 10° NW 03:17:38 34° NNE 03:21:52 10° E visible
27 May ? 04:55:01 10° WNW 04:59:23 43° SW 05:03:46 10° SSE visible
27 May ? 20:41:14 10° SW 20:45:37 68° SE 20:50:02 10° ENE visible
27 May ? 22:23:52 10° W 22:27:35 25° NNW 22:31:18 10° NNE visible
28 May ? 00:08:14 10° NNW 00:10:27 13° N 00:12:42 10° NNE visible
28 May ? 01:50:19 10° NNW 01:53:30 19° NNE 01:56:46 10° ENE visible
28 May ? 03:31:20 10° NW 03:35:51 63° NE 03:40:25 10° ESE visible
28 May ? 20:59:19 10° WSW 21:03:40 58° NW 21:08:03 10° NE visible
28 May ? 22:43:01 10° WNW 22:46:03 18° NNW 22:49:05 10° NNE visible
29 May ? 00:26:51 10° NNW 00:29:07 14° N 00:31:25 10° NE visible
29 May ? 02:08:06 10° NW 02:11:58 27° NNE 02:15:53 10° E visible
29 May ? 03:49:23 10° WNW 03:53:53 63° SW 03:58:27 10° SE visible
29 May ? 21:17:55 10° W 21:21:54 32° NNW 21:25:54 10° NE visible
29 May ? 23:02:14 10° NW 23:04:38 14° N 23:07:02 10° NNE visible
30 May ? 00:44:55 10° NNW 00:47:43 16° NNE 00:50:35 10° NE visible
30 May ? 02:25:54 10° NW 02:35:01 - ESE 02:28:38 32° NNW visible
30 May ? 04:12:47 26° SSW 04:12:47 26° SSW 04:15:45 10° SSE visible
30 May ? 21:36:55 10° WNW 21:40:18 21° NNW 21:43:40 10° NNE visible
30 May ? 23:21:09 10° NNW 23:23:17 13° N 23:25:26 10° NNE visible
31 May ? 01:02:43 10° NNW 01:06:10 22° NNE 01:06:10 22° NNE visible
31 May ? 21:56:10 10° NW 21:58:50 15° NNW 22:01:29 10° NNE visible
31 May ? 23:39:27 10° NNW 23:41:55 14° N 23:44:26 10° NE visible
01 Jun ? 01:20:29 10° NW 01:22:08 20° NNW 01:22:08 20° NNW visible
01 Jun ? 20:30:53 10° W 20:34:35 25° NNW 20:38:15 10° NNE visible
01 Jun ? 22:15:17 10° NNW 22:17:27 13° N 22:19:37 10° NNE visible
01 Jun ? 23:57:21 10° NNW 00:00:29 18° NNE 00:01:22 18° NNE visible
02 Jun ? 01:38:20 10° NW 01:38:28 11° NW 01:38:28 11° NW visible
02 Jun ? 20:50:02 10° WNW 20:53:03 17° NNW 20:56:01 10° NNE visible
02 Jun ? 22:33:53 10° NNW 22:36:06 13° N 22:38:20 10° NE visible
03 Jun ? 00:15:06 10° NW 00:17:54 25° N 00:17:54 25° N visible
03 Jun ? 21:09:16 10° NW 21:11:37 14° N 21:13:57 10° NNE visible
03 Jun ? 22:51:56 10° NNW 22:54:41 16° NNE 22:57:24 10° NE visible
04 Jun ? 00:32:53 10° NW 00:34:30 21° NNW 00:34:30 21° NNW visible
04 Jun ? 21:28:10 10° NNW 21:30:15 13° N 21:32:22 10° NNE visible
04 Jun ? 23:09:43 10° NNW 23:13:12 22° NNE 23:14:06 21° NE visible
